sat.trackr.live / text

‹ back to catalog

STARLINK-35880

NORAD 67187 · 2025-303AA

PAYLOAD ACTIVE UNKNOWN

§ Identity

Operator
Country
US
Launch date
2025-12-17
Launch site
AFETR
Launch vehicle
Mass (kg)
RCS (m²)

Purposes: comms

External: N2YO · Heavens-Above · Gunter

§ Orbital elements

Epoch: 2026-05-24T23:13:39.883008Z

Period
94.27 min
Inclination
42.9985°
Eccentricity
0.0001112
Mean motion
15.27578771 rev/d
Perigee alt
482.3 km
Apogee alt
483.8 km
Semi-major
6,861.2 km
B*
6.6900e-4
RAAN
239.6956°
Arg perigee
304.8436°
Mean anomaly
55.2311°
Rev number
2,440

§ Raw data

STARLINK-358801 67187U 25303AA  26144.96782272  .00018192  00000+0  66900-3 0  99962 67187  42.9985 239.6956 0001112 304.8436  55.2311 15.27578771 24408

JSON: /api/v1/satellites/67187 · /tle

For live sub-satellite position, see the globe view (requires WebGL).

§ Visibility from observer

Set your observer location to see the next 7 days of passes ≥ 10°. The values pass through the URL so the page stays shareable.

No JS? Fill the form by hand. The geolocation button needs JavaScript.